Dewpoint
60 59 50 47 51 44 34 34 23 24 27 17 14 13 12 9 12 8 6 5 3 23 21 19 22 39 51 54 54 56 57 56 57 54 54 63 65 64 65 65 66 69 71 72 73 73 74 74 74 74 74 74 74 74 74 74 74 73 73 73 73 73 73 73 73 72 72 72 72 72 71 71 71 71 71 71 71 71 71 71 70 69 70 70 71 70 70 69 69 69 68 68 67 68 67 67 68
51 47 49 48 44 40 33 28 28 23 24 14 12 12 11 13 14 7 4 2 26 30 28 30 29 47 55 56 56 56 57 58 60 62 64 64 65 65 65 66 68 70 71 72 72 73 74 74 74 74 74 74 74 74 73 73 73 74 73 73 73 73 73 73 73 72 72 72 72 71 71 71 71 71 71 71 72 71 72 71 68 68 69 70 69 69 69 68 68 68 68 68 68 68 68 67 68
45 46 44 46 43 38 32 34 24 22 16 11 10 10 9 7 7 9 11 34 31 30 30 45 53 51 54 56 55 55 55 59 62 64 64 65 64 64 65 67 69 70 71 71 71 73 73 74 74 74 74 74 74 74 74 73 74 73 74 73 73 73 73 73 73 72 72 72 72 71 71 71 71 71 71 72 72 72 72 71 68 67 67 68 69 68 68 68 68 68 68 68 68 68 68 68 68
58 50 45 47 33 32 30 32 28 20 17 14 14 14 11 8 6 5 36 38 36 33 35 48 55 57 55 55 54 56 55 57 61 64 64 64 64 65 66 66 68 69 70 70 71 72 73 74 74 74 74 74 74 74 73 73 73 73 73 73 73 73 73 73 72 72 72 72 71 71 71 71 70 70 70 70 71 71 71 71 70 68 67 67 67 67 67 68 68 68 68 68 68 68 68 67 67
56 49 46 47 35 33 33 31 27 21 18 17 13 13 14 9 11 7 34 35 35 33 32 47 55 59 60 58 58 57 58 59 60 62 64 65 65 65 65 65 66 68 69 70 71 72 73 74 74 74 74 74 74 73 73 73 73 73 73 73 73 73 73 73 72 72 72 71 71 71 71 71 70 70 70 70 69 70 70 70 70 69 68 69 70 71 71 69 68 68 68 68 68 68 68 68 68
46 41 44 46 33 33 25 27 23 24 23 20 17 15 14 10 14 16 21 23 34 30 33 50 54 58 59 60 62 60 63 63 61 63 65 64 65 64 64 65 65 67 68 70 72 72 73 74 74 73 74 74 74 73 73 73 73 74 73 73 73 73 73 73 72 72 72 72 71 71 71 71 70 70 70 70 69 69 69 69 68 69 68 68 68 68 68 68 68 68 68 69 68 68 69 69 69
38 39 37 39 32 27 29 27 25 22 19 20 20 18 16 10 16 15 18 22 20 23 33 57 59 58 58 59 60 61 62 62 61 63 65 65 65 64 64 64 65 68 69 70 72 72 73 73 73 73 74 74 73 73 73 73 73 73 73 73 73 73 73 72 72 72 72 72 71 71 71 71 70 70 70 70 69 69 69 70 69 68 69 69 68 68 68 68 68 68 69 68 69 70 69 69 69
40 30 30 24 20 25 24 23 23 24 24 18 13 15 15 12 13 19 13 10 16 13 25 48 54 55 57 60 59 62 62 63 65 66 66 65 65 66 65 64 66 68 69 70 72 73 73 73 73 73 74 74 73 73 73 73 73 73 73 73 73 73 73 72 72 72 72 71 71 71 71 71 71 70 70 70 70 69 69 69 69 68 68 68 68 68 68 68 69 69 69 69 68 69 68 69 69
30 26 33 24 21 20 18 20 21 22 21 19 15 16 33 7 10 9 2 7 14 18 21 50 56 56 59 60 61 63 63 64 66 68 67 66 66 66 66 65 67 68 69 71 72 72 72 73 73 73 73 74 73 73 73 73 73 73 73 73 73 73 72 72 72 72 72 72 72 72 72 72 72 71 70 70 70 70 70 69 69 69 68 68 68 67 68 69 69 69 69 69 69 69 69 68 68
25 24 27 25 16 11 6 6 11 13 13 11 8 6 9 8 13 10 6 4 5 13 35 47 55 58 60 60 61 63 63 66 66 67 67 68 68 67 67 68 69 69 70 71 71 72 72 74 73 73 73 73 73 73 73 73 73 73 73 73 73 72 72 72 72 72 72 72 72 71 71 71 71 71 70 69 70 70 70 69 69 69 68 68 69 69 69 70 70 70 69 69 69 69 69 68 67
23 22 30 23 25 14 9 4 2 3 4 5 1 -1 5 5 7 9 10 9 13 4 53 58 57 59 61 62 62 66 67 66 66 66 67 69 70 69 69 70 70 70 69 70 71 72 72 72 74 73 73 73 73 73 73 73 73 73 73 73 72 72 72 72 72 72 71 71 71 71 71 71 71 71 71 70 69 70 70 69 69 69 69 69 70 70 70 70 70 70 69 69 69 68 68 67 67
21 19 21 18 20 18 13 6 3 3 3 3 -1 -2 4 7 8 8 6 6 8 3 0 55 57 62 61 62 62 65 67 66 66 66 67 68 69 69 70 70 70 69 70 70 71 71 72 72 72 73 73 73 73 73 72 73 73 73 72 72 72 72 72 72 72 72 71 71 71 71 71 71 71 71 70 71 69 69 69 69 69 70 70 69 70 70 70 70 69 69 69 69 69 69 68 68 67
20 14 15 17 18 17 18 16 13 14 8 4 0 11 4 5 7 8 9 13 6 3 7 57 60 60 60 62 64 66 66 67 67 67 68 67 68 69 70 68 69 70 70 70 70 70 71 71 71 72 73 73 72 72 72 72 72 72 72 72 72 72 72 71 71 71 71 71 71 70 71 71 70 70 70 70 69 69 69 69 70 69 69 69 69 69 69 69 69 69 69 69 69 68 67 67 66
19 16 16 13 13 10 6 3 1 -1 -3 3 14 16 16 14 15 15 9 12 6 12 51 57 59 62 62 62 63 64 65 67 68 67 66 67 69 68 67 68 69 69 69 69 69 69 70 70 71 71 71 71 71 71 72 72 72 72 72 72 71 71 71 71 70 70 70 70 70 70 71 71 71 70 70 70 70 69 70 69 69 69 68 69 69 69 69 69 68 68 68 68 68 68 67 67 67
17 18 18 15 10 11 9 4 -2 -3 -4 5 13 17 18 19 18 18 18 17 43 52 53 59 58 56 59 61 61 63 65 67 66 66 67 68 67 67 67 69 70 69 68 68 67 67 69 70 70 70 71 71 70 70 70 71 71 71 71 71 71 71 71 71 70 70 70 70 71 70 70 70 70 70 70 70 70 70 70 70 69 69 69 69 68 68 68 67 67 68 67 68 68 67 66 67 68
15 15 19 19 12 10 10 10 10 4 -5 4 9 17 15 15 21 18 23 20 47 50 51 50 53 58 60 61 62 64 65 67 67 67 67 66 66 66 67 68 68 68 68 67 66 67 68 69 69 70 70 70 69 70 70 69 70 71 71 71 71 71 71 70 70 70 70 70 71 70 70 70 70 70 70 70 70 70 70 70 69 69 69 68 68 68 67 67 67 67 67 68 67 67 67 67 68
12 12 15 17 12 10 9 8 6 4 -1 7 9 8 7 11 23 24 24 28 52 52 51 52 54 58 59 60 64 65 66 68 68 67 66 65 65 64 65 66 66 68 67 66 66 68 69 69 69 69 70 69 69 69 68 69 70 71 71 71 71 71 71 71 70 70 70 70 70 71 70 69 69 69 69 69 70 70 70 69 69 69 69 68 68 68 67 67 67 67 67 67 67 67 67 68 68
14 14 14 12 11 9 9 7 7 3 7 8 9 10 9 11 24 27 21 48 54 54 54 53 54 58 62 64 65 66 66 67 67 65 64 64 65 64 64 64 66 66 66 67 68 69 69 69 68 69 69 68 68 68 67 68 69 70 69 70 70 70 71 71 70 70 70 69 70 69 69 69 69 69 69 71 70 70 70 69 69 69 68 68 67 67 67 66 67 66 67 67 67 67 67 66 66
10 16 14 10 9 9 9 10 11 5 6 9 10 11 10 11 31 32 29 32 52 53 54 56 61 63 64 64 65 66 66 63 62 63 63 62 63 62 63 64 65 66 66 66 67 68 68 68 68 68 68 68 68 67 67 67 67 68 69 69 70 70 70 70 70 70 69 69 69 69 68 67 68 68 69 69 70 70 70 69 69 69 68 68 67 67 67 67 66 67 67 66 66 66 64 64 64
10 13 12 10 10 9 9 9 8 7 10 12 10 11 11 21 25 36 33 32 47 52 55 57 61 62 63 64 65 65 63 61 62 62 62 62 62 62 63 64 65 65 65 65 66 67 68 68 68 68 68 68 68 67 67 67 67 68 68 69 68 69 68 69 68 69 69 68 68 68 68 68 68 68 68 68 70 69 69 69 69 69 68 68 67 67 67 66 67 67 67 66 68 66 62 61 60
11 10 9 10 10 9 9 9 9 5 7 12 14 12 10 15 23 33 34 39 45 51 54 57 60 61 63 64 64 64 61 61 62 62 62 62 62 63 63 64 65 65 65 65 66 66 67 67 68 68 68 68 67 67 67 67 67 67 68 68 67 68 68 68 68 68 68 68 68 68 68 69 69 68 68 67 68 68 67 68 68 67 67 67 68 65 65 66 66 65 64 65 63 64 63 62 62
9 10 11 11 11 10 11 11 7 6 9 8 11 9 11 17 15 26 33 38 45 48 49 58 61 62 63 64 64 61 61 61 61 62 62 62 62 62 63 64 65 66 65 65 65 66 67 68 68 68 68 68 67 67 67 68 67 66 67 67 66 66 68 68 68 68 68 68 68 68 69 68 68 68 67 67 66 66 67 67 66 66 66 66 67 66 65 65 65 65 65 65 64 64 64 63 63
6 6 10 12 11 10 11 10 9 9 8 8 8 10 9 6 7 14 26 43 46 47 48 58 60 62 63 65 63 61 61 61 61 61 62 62 62 62 63 64 65 66 65 65 65 66 67 68 68 68 68 68 67 67 67 67 66 66 66 67 66 66 67 67 67 68 68 67 67 68 67 66 66 65 65 65 65 65 66 66 66 66 67 66 68 65 65 66 65 65 64 64 63 64 64 64 64
6 3 8 10 12 11 10 8 7 7 13 13 11 10 8 9 3 15 36 42 43 48 48 53 59 61 65 63 63 61 61 61 61 62 62 62 62 62 63 64 64 65 64 65 66 66 67 67 68 68 67 67 67 67 67 66 67 66 67 69 67 68 67 66 66 67 67 67 67 67 68 66 65 65 64 65 65 65 65 66 66 66 66 65 67 66 65 65 65 65 64 64 65 65 64 64 64
5 4 4 7 11 10 9 8 5 12 13 11 12 9 7 10 10 6 18 41 41 47 47 52 58 61 62 62 62 62 61 61 61 62 63 62 63 64 64 64 64 64 64 65 66 66 66 67 68 67 67 67 67 67 67 67 67 67 67 67 66 68 65 65 66 66 67 67 67 67 68 66 65 65 64 65 65 66 65 65 65 65 65 65 66 65 65 65 64 65 64 64 64 64 64 64 65
3 3 6 7 9 10 9 8 6 7 8 8 8 5 5 8 9 5 21 40 40 45 45 55 60 61 61 61 62 61 61 61 61 61 62 62 63 64 64 64 64 64 64 65 66 66 66 67 68 67 67 67 67 67 66 67 66 66 66 67 67 68 66 67 67 67 66 66 66 66 66 66 65 65 64 65 64 65 65 64 65 65 64 65 65 64 65 65 65 64 64 63 64 63 64 65 65
3 2 4 6 7 7 8 8 7 11 15 6 3 6 4 8 9 2 16 40 40 44 46 55 60 60 60 61 61 62 61 60 60 62 61 63 63 63 64 64 64 64 65 65 66 66 65 66 67 68 68 68 68 67 66 67 67 67 66 67 67 67 67 68 67 67 66 65 65 65 65 65 65 66 65 65 64 65 63 63 64 64 64 64 64 64 66 65 65 64 64 64 63 62 64 65 66
3 2 1 4 7 8 8 7 5 7 12 12 9 6 6 5 7 2 5 41 40 39 46 53 59 60 60 61 61 61 60 60 60 62 62 62 62 63 63 63 64 64 64 64 65 65 65 65 66 67 67 67 66 67 67 66 66 67 67 67 67 67 68 67 66 66 67 65 65 65 65 65 65 65 65 65 64 64 63 63 64 63 63 64 64 65 65 64 64 64 65 64 64 64 64 64 65
4 6 4 2 2 5 8 5 6 9 10 8 7 3 1 4 1 3 3 5 37 40 42 52 58 59 59 60 60 59 59 59 61 63 62 62 62 64 63 64 64 64 65 65 64 64 65 65 66 66 66 66 67 67 66 66 66 67 67 66 68 68 67 66 65 64 64 65 65 65 65 64 64 64 65 65 65 63 62 63 63 63 63 63 64 65 66 65 64 64 64 64 63 64 63 64 66
6 6 5 5 5 4 7 9 7 10 11 9 5 3 1 -0 1 2 4 4 17 38 42 53 56 58 58 59 60 59 59 61 63 63 63 63 64 64 63 64 63 63 65 64 64 64 65 65 66 66 66 67 66 66 66 66 66 66 66 67 67 67 67 66 66 65 66 65 65 65 65 65 64 64 63 64 64 63 63 63 64 63 63 65 65 65 65 64 63 63 63 63 65 63 63 63 63
4 5 6 8 9 9 9 8 7 3 8 8 1 3 5 0 0 2 5 4 9 24 35 53 55 57 58 60 61 61 62 62 63 63 64 64 65 64 64 64 63 64 64 63 63 64 64 64 66 66 66 67 67 66 66 65 66 66 65 66 66 66 66 65 65 65 65 64 65 64 65 65 65 64 64 65 63 63 63 64 64 64 65 65 65 64 63 62 63 63 63 63 62 63 63 64 63
9 4 6 5 6 8 8 8 6 3 6 5 2 9 5 1 -0 1 3 3 11 22 25 50 55 57 59 61 61 61 61 62 63 63 64 64 65 65 64 63 63 64 64 63 63 63 63 64 65 65 66 65 65 66 66 66 66 65 65 68 66 67 66 66 65 66 65 65 65 64 64 64 64 64 65 65 64 63 62 62 63 65 65 64 64 63 63 63 62 63 62 63 62 63 64 64 63
13 9 23 12 6 5 4 5 4 4 3 4 3 4 2 3 2 1 2 4 19 20 25 50 54 57 59 61 61 61 61 62 62 62 64 63 64 64 64 64 64 65 64 63 62 63 64 64 65 65 65 65 66 67 67 66 66 66 67 67 67 67 65 66 66 66 65 65 66 64 64 64 64 65 65 65 64 64 63 63 65 65 65 65 63 63 62 63 62 64 62 63 62 62 63 64 64
17 8 9 13 7 9 3 4 3 2 2 3 3 1 7 8 3 1 1 2 19 20 28 52 55 56 59 60 60 60 61 61 61 62 62 62 63 64 65 65 65 65 64 63 64 64 64 64 64 64 64 64 65 65 65 66 66 66 66 66 67 66 65 65 65 64 64 64 64 65 65 65 65 65 65 65 64 65 64 64 64 64 65 64 64 63 62 63 63 63 62 62 63 63 62 61 62
17 18 13 8 4 5 3 0 0 -1 1 4 4 3 4 2 3 5 2 1 16 22 31 55 56 58 59 59 59 59 60 59 61 61 62 63 63 64 64 64 64 63 64 63 63 64 64 64 64 63 63 63 65 65 65 65 66 66 66 66 66 65 64 64 64 63 64 63 64 65 66 65 65 65 65 66 64 64 64 64 63 63 64 63 62 62 62 63 63 62 62 62 63 63 62 62 61
10 11 12 8 9 2 0 0 -0 -4 3 2 4 1 2 3 4 4 12 17 20 24 39 55 57 58 59 59 59 59 59 59 59 60 61 63 64 63 63 64 63 63 63 63 63 64 63 63 62 63 64 64 65 64 64 63 65 64 64 64 63 63 63 63 61 61 62 62 64 64 65 65 65 65 65 65 65 64 64 63 63 63 63 62 62 62 61 62 62 62 61 62 61 62 63 61 61
8 7 6 4 3 3 2 -1 -2 -3 1 4 5 5 2 4 4 8 9 16 23 22 43 54 55 57 58 58 58 59 58 58 58 59 59 60 63 62 63 63 63 63 63 62 62 62 62 62 62 62 64 65 64 63 62 63 63 63 62 61 60 58 60 61 61 60 61 61 61 62 64 63 64 65 65 64 65 66 64 64 63 62 62 62 62 62 62 62 63 63 62 62 61 60 61 62 61
18 14 9 6 8 10 10 2 -2 -5 17 4 8 8 3 7 9 9 15 17 21 26 41 52 53 54 57 58 58 58 58 58 58 58 59 60 62 62 62 63 63 63 62 61 61 62 62 63 63 63 64 64 63 63 62 61 63 61 60 58 58 58 58 57 58 58 58 60 61 61 61 61 63 63 64 64 64 64 63 64 64 62 62 61 62 62 63 64 63 63 63 61 62 60 60 62 62
22 18 13 13 11 13 14 13 2 -4 13 6 4 5 8 10 10 9 27 22 23 24 37 51 51 52 55 57 58 58 57 57 58 58 59 59 62 62 62 62 63 63 61 61 61 62 63 63 63 64 64 63 63 63 63 63 63 62 59 57 56 56 58 58 56 58 61 60 60 60 60 61 61 61 63 63 63 63 63 63 63 63 63 63 62 61 62 62 62 62 62 61 60 60 60 62 61
21 18 17 14 14 16 13 14 8 17 12 13 7 6 13 18 16 14 21 27 25 24 30 46 51 50 54 57 57 57 57 57 57 58 58 60 61 61 61 61 62 62 61 61 61 61 63 63 63 63 63 63 63 62 63 62 63 62 60 60 57 55 55 58 58 59 58 59 60 61 61 62 61 60 61 62 62 63 62 62 63 63 63 63 63 61 61 61 61 61 61 61 60 58 59 60 62
31 26 18 16 16 16 13 22 20 35 31 31 22 28 24 23 11 12 22 27 31 24 25 29 43 49 53 57 57 57 57 57 57 57 58 60 61 61 61 62 60 61 60 61 61 62 63 63 63 63 62 62 63 63 62 62 61 58 57 57 57 56 55 54 54 56 58 60 58 58 58 57 57 57 57 58 60 61 62 62 62 62 63 64 63 62 61 62 62 61 60 61 60 59 58 59 61
26 31 26 21 19 19 17 20 17 24 16 33 14 15 19 24 21 16 16 17 25 25 25 24 30 48 52 56 57 57 57 57 57 57 58 60 60 61 62 62 62 61 61 61 61 62 62 63 63 63 63 63 62 62 62 61 60 56 53 53 52 53 52 52 53 53 54 56 57 58 60 60 59 57 58 60 61 61 60 62 62 62 62 63 62 62 62 63 63 62 62 61 60 60 59 58 59
22 23 24 19 16 20 18 15 17 17 14 22 30 13 18 23 16 17 23 11 11 27 26 26 46 51 55 56 57 57 57 57 58 58 59 58 58 59 61 61 62 61 60 61 61 61 63 63 63 63 63 62 62 61 61 61 60 57 54 52 52 51 52 55 56 56 55 56 56 55 55 58 58 58 59 58 59 60 60 61 61 61 61 61 62 61 60 61 61 62 62 62 61 61 59 56 58
19 28 18 15 11 12 20 15 10 18 30 33 25 19 16 16 18 18 19 20 22 25 29 32 50 53 55 56 56 56 56 58 57 57 58 58 58 59 60 60 61 60 61 60 61 63 63 63 62 62 62 62 61 61 60 60 58 58 55 53 54 53 55 55 55 55 56 56 55 56 57 57 57 57 57 59 59 60 59 58 59 60 60 59 60 58 59 60 60 61 61 61 60 60 59 58 58
18 22 15 12 9 12 10 8 14 20 25 17 23 18 16 17 20 24 21 17 19 27 31 46 53 54 55 55 55 56 57 57 57 56 57 58 59 60 61 61 61 61 61 61 63 63 63 62 61 61 61 61 60 60 60 60 59 60 60 58 59 57 55 53 55 55 54 55 54 57 58 57 58 58 59 58 58 59 58 58 57 57 57 58 58 58 59 60 61 60 60 60 59 60 60 59 58
13 12 12 10 9 7 9 11 7 26 16 16 23 27 15 17 22 18 20 18 17 25 37 51 52 54 55 55 56 55 56 56 57 57 57 58 59 60 60 61 61 62 62 63 63 62 62 61 61 61 60 60 60 60 60 59 60 61 60 58 55 54 53 53 54 53 52 55 57 56 56 56 55 55 56 57 58 59 58 55 53 55 57 57 58 58 59 59 59 60 60 60 60 60 60 59 59
14 12 10 9 8 12 11 15 18 18 16 21 26 32 18 16 27 24 22 23 22 28 37 50 51 52 54 55 55 55 55 55 56 56 57 58 59 59 59 60 61 62 63 63 62 61 61 61 61 60 60 60 60 60 59 59 60 61 60 56 54 53 53 54 54 53 56 55 54 55 56 57 56 56 55 56 56 56 57 58 56 57 58 59 58 57 57 59 58 58 59 59 59 59 59 59 59
7 15 11 9 14 19 18 20 19 10 15 21 18 20 22 15 23 29 32 32 30 30 39 48 50 50 51 53 55 55 55 55 56 56 57 58 58 59 60 60 61 62 62 61 61 61 61 61 60 60 60 60 60 60 59 60 61 61 60 55 54 54 54 54 53 53 55 54 53 55 56 55 54 54 55 54 54 55 55 56 57 57 57 55 55 55 55 55 55 56 56 56 56 57 57 57 57
6 12 13 14 16 15 16 8 8 9 15 18 17 17 25 19 22 31 35 37 37 35 44 47 49 49 50 54 55 56 55 55 55 57 57 58 58 58 59 60 61 61 60 60 60 60 60 60 60 59 59 60 60 60 59 60 60 61 59 55 55 55 54 53 54 54 55 53 56 57 55 54 54 53 54 56 56 56 56 55 54 53 53 53 54 54 53 55 55 54 54 54 55 55 54 54 53
9 9 18 14 13 11 9 14 15 14 19 24 19 16 15 37 31 33 38 39 40 43 46 48 48 48 51 54 55 55 54 54 55 57 57 57 57 58 59 60 60 60 60 60 59 59 59 59 59 59 59 60 60 60 60 61 60 61 59 57 56 56 54 54 55 54 55 54 57 56 55 54 54 54 55 54 53 54 55 56 55 55 55 54 54 53 53 52 51 51 51 50 51 52 53 52 51
11 11 10 20 16 18 11 13 11 14 18 22 25 18 20 24 29 38 38 40 41 42 44 46 48 50 53 54 55 55 54 54 56 56 56 56 57 58 58 59 60 60 59 59 59 58 57 58 59 59 59 60 60 60 60 60 60 61 59 58 56 56 55 55 55 55 56 54 57 56 56 54 53 53 54 54 53 53 54 54 54 53 53 53 53 52 51 50 50 50 51 51 50 51 51 52 52
17 13 11 12 19 22 15 18 20 19 16 20 20 20 33 30 46 43 37 40 41 45 48 49 50 51 53 54 54 55 55 55 56 56 56 57 57 57 58 59 60 60 59 59 59 59 59 58 58 58 59 60 60 59 59 60 59 60 59 57 57 57 56 57 56 56 56 55 54 56 54 52 53 53 53 53 54 51 50 51 52 53 54 54 53 51 51 51 52 51 51 50 51 55 51 51 51
31 16 12 12 24 18 19 23 29 19 20 16 22 28 33 36 34 35 35 40 42 43 45 47 47 50 52 52 53 54 56 56 56 57 57 57 58 58 58 60 60 60 60 59 59 59 59 59 59 59 59 59 59 59 60 60 60 59 58 57 57 56 56 56 55 55 56 54 56 56 54 53 52 52 53 51 50 51 53 52 52 51 50 50 50 50 50 50 49 49 49 50 50 51 52 50 51
22 14 16 10 12 29 22 18 19 18 15 16 22 25 29 30 27 32 40 41 42 43 47 50 52 52 52 52 53 55 55 56 56 57 57 58 58 58 59 60 60 60 60 59 59 60 60 60 60 59 59 59 60 60 60 60 59 59 58 57 57 56 56 56 55 55 55 56 57 56 54 52 51 52 51 52 53 53 53 56 51 49 50 51 52 51 50 50 49 49 49 50 51 51 50 50 51
14 18 18 18 22 22 29 19 17 13 12 16 21 29 31 29 30 31 39 41 41 42 47 50 51 53 53 54 54 55 55 55 55 56 56 57 58 58 59 59 59 60 60 60 60 60 60 60 60 60 60 60 60 60 60 60 59 59 59 58 57 55 57 56 56 55 55 55 55 53 52 52 52 51 52 53 53 51 51 51 52 52 52 52 52 51 51 51 51 50 51 52 52 51 50 50 50
7 14 17 28 29 29 20 19 23 22 20 13 19 31 27 36 37 40 37 43 44 46 48 49 51 52 53 54 54 53 54 54 55 55 55 56 57 57 58 58 59 59 59 59 59 60 60 60 59 60 59 60 59 59 59 59 59 59 59 59 57 55 57 55 55 54 54 54 55 54 53 52 51 52 52 53 51 51 52 52 52 51 51 51 51 49 48 49 51 50 49 48 49 51 50 49 49
12 9 20 20 29 34 27 33 18 19 22 20 23 22 30 37 42 42 43 44 45 46 48 49 51 52 53 53 53 53 53 54 54 55 55 56 56 56 56 57 58 59 59 58 58 59 59 59 59 59 59 60 59 60 60 59 59 58 58 58 58 55 55 55 54 54 53 54 55 54 53 52 53 52 52 52 52 53 52 52 51 52 51 52 51 50 51 52 52 49 49 49 49 44 45 47 47
19 20 20 14 26 22 15 21 24 24 17 18 19 25 32 40 45 46 46 47 47 48 49 49 51 52 53 53 53 53 54 55 56 57 55 55 55 55 56 58 58 57 58 57 57 58 59 59 59 59 59 59 59 59 59 59 58 58 57 58 58 56 55 55 54 54 54 54 54 54 54 52 52 52 51 52 52 52 52 52 50 51 52 53 52 52 52 50 51 51 50 52 48 46 49 46 45